カタログに戻る

REX 2

運用中科学PO
NORAD 23814·PAYLOAD·🇺🇸 United States

打ち上げ Mar 9, 1996 から Vandenberg Space Force Base

Loading…

次のパス (今後24時間)

TLE

最新Source: Space-Track

元期: Sep 14, 2026, 04:53 UTC

1 23814U 96014A   26257.20376454  .00000118  00000-0  45089-4 0  9991
2 23814  90.0142 341.3423 0020976 204.2140 155.8070 14.25380114585871

AllMySatでREX 2をリアルタイム追跡

Download on the App Store